Hourly Weather Roundup
Issued by NWS Central Illinois

Home | Current Version | Previous Version | Text Only | Print | Product List | Glossary On
Versions: 1 2 3 4 5 6 7 8 9 10 11 12 13 14 15 16 17 18 19 20 21 22 23 24 25 26 27 28 29 30 31 32 33 34 35 36 37 38 39 40 41 42 43 44 45 46 47 48 49 50
296
NZUS43 KILX 310310
HWRILX

AREA WEATHER ROUNDUP
NATIONAL WEATHER SERVICE, LINCOLN IL
1000 PM CDT MON MAY 30 2016


CITY           SKY/WX    TMP DP  RH WIND       PRES   REMARKS
BLOOMINGTON    MOCLDY    72  63  73 S9        30.00R
CHAMPAIGN      CLEAR     71  57  61 W7        29.99R
DANVILLE       PTCLDY    71  60  67 SW5       29.96R
DECATUR        CLOUDY    72  60  66 NW14G28   30.00R
EFFINGHAM      MOCLDY    70  69  98 CALM      30.00S
FLORA          PTCLDY    73  70  89 CALM      29.99R
GALESBURG      CLEAR     71  64  78 CALM      29.97R
JACKSONVILLE   CLOUDY    74  59  60 S3        29.98S
LACON          CLEAR     70  61  74 CALM      29.96R
LAWRENCEVILLE  PTCLDY    74  62  66 CALM      29.99R
LITCHFIELD     CLOUDY    67  62  85 CALM      29.99S
$$


CITY           SKY/WX    TMP DP  RH WIND       PRES   REMARKS
LINCOLN        MOCLDY    76  62  61 CALM      29.98R
MACOMB         CLEAR     72  65  79 S5        29.99R
MATTOON        PTCLDY    70  66  87 CALM      29.99R
MT CARMEL AP   PTCLDY    73  63  70 CALM      29.99R
OLNEY-NOBLE AP MOCLDY    70  64  83 CALM      29.99S
PARIS          PTCLDY    73  62  69 CALM      30.00R
PEORIA         PTCLDY    74  63  68 CALM      29.97R
PONTIAC        PTCLDY    73  61  65 S3        29.98R
RANTOUL        MOCLDY    74  58  59 W8        29.98S
ROBINSON       MOCLDY    68  64  87 NW5       30.00R
SPRINGFIELD    MOCLDY    74  56  53 SW5       29.99R
TAYLORVILLE    MOCLDY    71  59  66 CALM      29.99S
$$

...REGIONAL REPORTS...


CITY           SKY/WX    TMP DP  RH WIND       PRES   REMARKS
CHICAGO O`HARE CLOUDY    71  55  56 E8        29.98R
KANKAKEE       CLOUDY    72  58  61 CALM      29.97R
MOLINE         CLEAR     72  62  71 S3        29.95R
MOUNT STERLING MOCLDY    73  66  79 S6        29.98R
MOUNT VERNON   CLOUDY    70  63  78 CALM      29.99S
PITTSFIELD     CLOUDY    73  62  67 SW7       30.00R
QUINCY         PTCLDY    74  64  71 W9        29.98R
ROCKFORD       MOCLDY    72  54  53 E6        29.99R
$$


CITY           SKY/WX    TMP DP  RH WIND       PRES   REMARKS
BURLINGTON     CLEAR     73  65  75 S5        29.96R
CEDAR RAPIDS   PTCLDY    70  64  81 S7        29.94R
DES MOINES     CLOUDY    72  55  55 S9        29.91F
KIRKSVILLE     PTCLDY    66  61  84 S6        29.99S
OTTUMWA        CLEAR     73  59  61 SW7       29.95R
ST LOUIS       NOT AVBL
$$


CITY           SKY/WX    TMP DP  RH WIND       PRES   REMARKS
TERRE HAUTE    MOCLDY    71  62  73 CALM      29.99S
EVANSVILLE     CLOUDY    73  60  63 CALM      29.99R
INDIANAPOLIS   PTCLDY    73  58  59 SW5       29.98R
LAFAYETTE      MOCLDY    69  60  73 CALM      29.97R
MADISON        CLOUDY    65  53  65 CALM      29.98R
MILWAUKEE      PTCLDY    65  57  75 CALM      30.00R
$$






USA.gov is the U.S. government's official web portal to all federal, state and local government web resources and services.